TimeMST,TemperatureF,Dew PointF,Humidity,Sea Level PressureIn,VisibilityMPH,Wind Direction,Wind SpeedMPH,Gust SpeedMPH,PrecipitationIn,Events,Conditions,WindDirDegrees,DateUTC
12:53 AM,33.1,27.0,78,30.04,10.0,SSW,6.9,-,N/A,,Scattered Clouds,200,2012-11-17 07:53:00
1:53 AM,33.1,27.0,78,30.05,10.0,Variable,3.5,-,N/A,,Partly Cloudy,0,2012-11-17 08:53:00
2:53 AM,30.9,25.0,79,30.08,10.0,Calm,Calm,-,N/A,,Clear,0,2012-11-17 09:53:00
3:53 AM,28.9,23.0,78,30.09,10.0,SSW,8.1,-,N/A,,Clear,200,2012-11-17 10:53:00
4:53 AM,30.0,24.1,79,30.10,10.0,SSW,5.8,-,N/A,,Clear,200,2012-11-17 11:53:00
5:53 AM,30.0,24.1,79,30.11,10.0,Calm,Calm,-,N/A,,Partly Cloudy,0,2012-11-17 12:53:00
6:53 AM,28.9,23.0,78,30.11,10.0,SSW,5.8,-,N/A,,Clear,210,2012-11-17 13:53:00
7:53 AM,30.9,24.1,76,30.12,10.0,SSW,3.5,-,N/A,,Clear,200,2012-11-17 14:53:00
8:53 AM,39.9,28.0,63,30.10,10.0,SSE,3.5,-,N/A,,Clear,160,2012-11-17 15:53:00
9:53 AM,45.0,28.0,52,30.09,10.0,Calm,Calm,-,N/A,,Clear,0,2012-11-17 16:53:00
10:53 AM,48.9,30.0,48,30.04,10.0,North,3.5,-,N/A,,Clear,360,2012-11-17 17:53:00
11:53 AM,54.0,27.0,35,30.01,10.0,SE,3.5,-,N/A,,Clear,130,2012-11-17 18:53:00
12:53 PM,54.0,25.0,33,29.99,10.0,SE,11.5,-,N/A,,Clear,140,2012-11-17 19:53:00
1:53 PM,55.0,25.0,31,29.98,10.0,SE,9.2,-,N/A,,Clear,130,2012-11-17 20:53:00
2:53 PM,54.0,26.1,34,29.97,10.0,ESE,10.4,-,N/A,,Clear,120,2012-11-17 21:53:00
3:53 PM,50.0,28.9,44,29.98,10.0,SE,6.9,-,N/A,,Clear,140,2012-11-17 22:53:00
4:53 PM,39.9,30.0,68,30.00,10.0,South,8.1,-,N/A,,Clear,190,2012-11-17 23:53:00
5:53 PM,39.0,28.9,67,29.99,10.0,Calm,Calm,-,N/A,,Clear,0,2012-11-18 00:53:00
6:53 PM,32.0,27.0,82,29.99,10.0,Calm,Calm,-,N/A,,Clear,0,2012-11-18 01:53:00
7:53 PM,33.1,27.0,78,29.97,10.0,Calm,Calm,-,N/A,,Clear,0,2012-11-18 02:53:00
8:53 PM,30.9,27.0,85,29.95,10.0,SSE,4.6,-,N/A,,Clear,160,2012-11-18 03:53:00
9:53 PM,32.0,26.1,79,29.91,10.0,SSW,5.8,-,N/A,,Clear,200,2012-11-18 04:53:00
10:53 PM,35.1,27.0,72,29.88,10.0,Calm,Calm,-,N/A,,Clear,0,2012-11-18 05:53:00
11:53 PM,30.9,26.1,82,29.86,10.0,Calm,Calm,-,N/A,,Clear,0,2012-11-18 06:53:00